Regional Weather Roundup
Issued by NWS Burlington, VT

Current Version | Previous Version | Text Only | Print | Product List | Glossary On
Versions: 1 2 3 4 5 6 7 8 9 10 11 12 13 14 15 16 17 18 19 20 21 22 23 24 25 26 27 28 29 30 31 32 33 34 35 36 37 38 39 40 41 42 43 44 45 46 47 48 49 50
000 ASUS41 KBTV 241330 RWRBTV VERMONT REGIONAL WEATHER ROUNDUP NATIONAL WEATHER SERVICE BURLINGTON VT 900 AM EDT SUN MAY 24 2015 NOTE: "FAIR" INDICATES FEW OR NO CLOUDS BELOW 12,000 FEET WITH NO SIGNIFICANT WEATHER AND/OR OBSTRUCTIONS TO VISIBILITY. * THESE REPORTS ARE NOT UNDER NWS QUALITY CONTROL AND/OR DO NOT REPORT WEATHER SUCH AS PRECIPITATION AND FOG. VTZ001>019-241400- _____VERMONT_____ CITY SKY/WX TMP DP RH WIND PRES REMARKS BURLINGTON MOSUNNY 64 34 32 S13G20 30.19R MONTPELIER SUNNY 63 34 33 SW6 30.23R MORRISVILLE PTSUNNY 67 37 33 SW7 30.20R ST. JOHNSBURY* N/A 62 36 37 MISG 30.16S LYNDONVILLE* N/A 59 34 38 E3 30.20R MIDDLEBURY* N/A 64 33 32 S12 30.22F RUTLAND* MOSUNNY 63 30 29 CALM 30.25S SPRINGFIELD SUNNY 59 41 51 CALM 30.25S HIGHGATE* N/A 62 36 38 S8 30.17S NEWPORT* N/A 61 39 44 W12G23 30.16S BENNINGTON SUNNY 60 38 43 CALM 30.30S SUTTON* N/A 57 N/A N/A MISG N/A GALLUP MILLS* N/A 63 N/A N/A MISG N/A MT. MANSFIELD* N/A 46 N/A N/A CALM N/A _____LAKE CHAMPLAIN_____ CITY SKY/WX TMP DP RH WIND PRES REMARKS BURTON ISLAND* N/A 57 41 54 S9 N/A COLCHESTER RF* N/A 54 41 62 SW9 N/A DIAMOND ISL* N/A 59 37 44 W1 N/A $$ NYZ007-026>031-035-052-083-241400- _____NORTHERN NEW YORK_____ CITY SKY/WX TMP DP RH WIND PRES REMARKS PLATTSBURGH PTSUNNY 64 34 32 S7 30.17S SARANAC LAKE SUNNY 62 33 33 SW14G20 30.21S MASSENA PTSUNNY 58 36 43 SW14 30.18S OGDENSBURG* SUNNY 59 39 47 SW12 30.20S POTSDAM* MOSUNNY 61 37 41 SW15G24 30.19F STARK FALLS* N/A 59 N/A N/A SW12 N/A WATERTOWN SUNNY 62 32 32 SW13G23 30.26S FT DRUM SUNNY 63 30 28 W15G21 30.24S ALBANY MOSUNNY 60 38 43 S5 30.31S $$ NHZ002-005-011-241400- _____NEW HAMPSHIRE_____ CITY SKY/WX TMP DP RH WIND PRES REMARKS LEBANON SUNNY 64 36 35 VRB5 30.22R KEENE SUNNY 63 37 39 S5 30.27F MT WASHINGTON PTSUNNY 34 23 64 NW55G62 N/A PLYMOUTH N/A 65 41 41 W8 30.18S WHITEFIELD SUNNY 62 35 36 W8G20 30.17R $$ _____REGIONAL QUEBEC LOCATIONS_____ CITY SKY/WX TMP DP RH WIND PRES REMARKS MONTREAL PTSUNNY 57 39 51 SW14 30.14S QUEBEC CITY MOSUNNY 59 43 55 W18 30.03R SHERBROOKE SUNNY 61 39 44 W18G26 30.11R _____REGIONAL ONTARIO LOCATIONS_____ CITY SKY/WX TMP DP RH WIND PRES REMARKS OTTAWA PTSUNNY 57 43 58 SW10 30.16R ______KEY______ VSB - VISIBILITY IN MILES WCI - WIND CHILL INDEX HX - HEAT INDEX $$

USA.gov is the U.S. government's official web portal to all federal, state and local government web resources and services.